�N����,����,�~����,�C��,���x,�C��,����,���ϕ���,�ő�u�ԕ���,�ő厞����,���˗�,�I�_���x,�n�����x,�ő啗���N��,DTYPE
"22/01/25","00:10",0.0,1.5,91.8,1013.8,313.2,2.8,3.9,326.9,0.00,0.4,5.7,"00:04:48",1
"22/01/25","00:20",0.0,1.4,91.9,1014.0,278.1,1.2,2.4,291.0,0.00,0.3,5.7,"00:10:48",1
"22/01/25","00:30",0.0,1.5,92.1,1013.5,299.6,1.5,2.4,308.0,0.00,0.4,5.7,"00:26:24",1
"22/01/25","00:40",0.0,1.3,92.1,1013.8,291.9,1.5,2.2,315.9,0.00,0.2,5.8,"00:39:44",1
"22/01/25","00:50",0.0,1.4,92.3,1013.5,296.2,1.7,2.9,307.7,0.00,0.3,5.4,"00:47:04",1
"22/01/25","01:00",0.0,1.3,92.3,1014.0,305.7,2.1,2.5,318.8,0.00,0.2,5.5,"00:54:24",1
"22/01/25","01:10",0.0,1.2,92.5,1013.5,322.3,1.7,2.7,321.6,0.00,0.2,5.5,"01:06:08",1
"22/01/25","01:20",0.0,1.1,92.6,1013.5,323.2,2.0,2.6,323.9,0.00,0.1,5.4,"01:18:32",1
"22/01/25","01:30",0.0,1.0,92.8,1013.3,325.3,2.0,2.6,333.7,0.00,0.0,5.5,"01:25:44",1
"22/01/25","01:40",0.0,0.8,93.0,1013.8,306.9,1.7,2.1,317.1,0.00,-0.2,5.6,"01:34:16",1
"22/01/25","01:50",0.0,0.6,93.2,1014.0,318.8,1.8,2.5,324.1,0.00,-0.3,5.5,"01:49:04",1
"22/01/25","02:00",0.0,0.4,93.4,1013.8,308.1,1.2,2.1,322.6,0.00,-0.5,5.5,"01:58:16",1
"22/01/25","02:10",0.0,0.3,93.7,1014.2,314.2,1.3,2.1,334.7,0.00,-0.6,5.5,"02:04:40",1
"22/01/25","02:20",0.0,0.2,93.9,1014.2,325.7,1.8,2.2,334.7,0.00,-0.6,5.6,"02:11:44",1
"22/01/25","02:30",0.0,0.0,94.1,1014.0,278.9,0.8,1.8,330.6,0.00,-0.8,5.3,"02:20:16",1
"22/01/25","02:40",0.0,0.0,94.3,1014.0,306.9,1.5,1.9,333.2,0.00,-0.8,5.3,"02:38:56",1
"22/01/25","02:50",0.0,0.0,94.5,1013.8,341.7,1.3,1.9,339.2,0.00,-0.7,5.3,"02:46:40",1
"22/01/25","03:00",0.0,-0.4,94.7,1013.8,299.7,1.1,1.8,323.2,0.00,-1.1,5.2,"02:52:56",1
"22/01/25","03:10",0.0,-0.6,95.0,1013.8,325.2,1.3,2.5,330.6,0.00,-1.3,5.4,"03:09:28",1
"22/01/25","03:20",0.0,-0.6,95.1,1013.5,319.1,1.2,2.4,336.3,0.00,-1.2,5.3,"03:14:16",1
"22/01/25","03:30",0.0,-0.6,95.3,1013.8,314.2,1.1,2.0,343.0,0.00,-1.2,5.3,"03:22:16",1
"22/01/25","03:40",0.0,-0.8,95.5,1013.8,312.9,1.3,2.0,320.0,0.00,-1.4,5.2,"03:35:28",1
"22/01/25","03:50",0.0,-1.1,95.6,1013.8,317.2,1.2,1.9,313.6,0.00,-1.7,5.2,"03:45:52",1
"22/01/25","04:00",0.0,-1.1,96.0,1014.0,345.5,1.0,1.3,349.8,0.00,-1.6,5.2,"03:55:44",1
"22/01/25","04:10",0.0,-1.3,96.0,1014.0,315.5,1.0,1.4,324.5,0.00,-1.8,5.2,"04:03:04",1
"22/01/25","04:20",0.0,-1.4,96.3,1013.5,316.7,0.7,1.3,339.8,0.00,-1.9,5.2,"04:18:16",1
"22/01/25","04:30",0.0,-1.3,96.4,1013.0,328.0,0.8,1.3,324.7,0.00,-1.8,5.0,"04:28:08",1
"22/01/25","04:40",0.0,-1.4,96.5,1013.3,314.7,1.0,1.4,326.7,0.00,-1.8,5.4,"04:38:16",1
"22/01/25","04:50",0.0,-1.4,96.5,1013.0,308.2,0.8,1.0,331.6,0.00,-1.8,5.0,"04:40:16",1
"22/01/25","05:00",0.0,-1.5,96.6,1012.8,310.0,0.7,1.0,311.4,0.00,-1.9,5.0,"04:54:48",1
"22/01/25","05:10",0.0,-1.6,96.8,1013.3,324.2,1.1,1.6,324.0,0.00,-2.0,5.0,"05:06:56",1
"22/01/25","05:20",0.0,-1.9,96.9,1013.5,311.2,1.2,1.6,332.8,0.00,-2.3,4.9,"05:11:12",1
"22/01/25","05:30",0.0,-1.9,97.1,1013.5,321.7,0.8,1.7,318.6,0.00,-2.3,5.0,"05:27:44",1
"22/01/25","05:40",0.0,-2.0,97.1,1013.5,306.3,1.0,1.3,328.5,0.00,-2.4,5.0,"05:30:08",1
"22/01/25","05:50",0.0,-2.2,97.4,1013.3,311.8,1.0,1.7,325.2,0.00,-2.5,4.9,"05:47:36",1
"22/01/25","06:00",0.0,-2.1,97.4,1013.3,320.0,1.0,1.3,329.8,0.00,-2.4,4.8,"05:50:08",1
"22/01/25","06:10",0.0,-2.2,97.5,1013.0,290.4,0.5,1.0,316.1,0.00,-2.5,4.6,"06:00:32",1
"22/01/25","06:20",0.0,-2.1,97.5,1013.5,310.1,0.8,1.1,337.0,0.00,-2.4,4.8,"06:12:32",1
"22/01/25","06:30",0.0,-2.4,97.6,1013.3,281.3,1.0,1.2,267.5,0.00,-2.7,4.7,"06:24:16",1
"22/01/25","06:40",0.0,-2.4,97.9,1013.3,295.3,1.0,1.3,268.6,0.00,-2.6,4.7,"06:33:12",1
"22/01/25","06:50",0.0,-2.2,97.9,1013.5,335.6,1.3,1.7,349.1,0.00,-2.4,4.9,"06:45:04",1
"22/01/25","07:00",0.0,-2.2,97.9,1014.0,317.6,1.1,1.7,351.0,0.00,-2.4,4.6,"06:54:00",1
"22/01/25","07:10",0.0,-2.3,98.1,1013.8,311.8,1.2,1.6,323.3,0.00,-2.5,4.5,"07:02:24",1
"22/01/25","07:20",0.0,-2.0,97.4,1014.0,298.9,1.0,1.2,301.2,0.00,-2.3,4.5,"07:18:40",1
"22/01/25","07:30",0.0,-2.1,98.1,1013.8,310.2,1.1,1.7,323.5,0.00,-2.3,4.6,"07:21:52",1
"22/01/25","07:40",0.0,-2.0,97.5,1013.5,280.3,1.0,1.4,278.8,0.00,-2.3,4.5,"07:35:52",1
"22/01/25","07:50",0.0,-1.9,98.3,1014.0,306.6,1.3,1.7,323.7,0.00,-2.1,4.3,"07:49:52",1
"22/01/25","08:00",0.0,-0.9,97.8,1014.2,322.0,1.7,2.2,336.0,0.01,-1.2,4.5,"07:59:44",1
"22/01/25","08:10",0.0,-0.8,98.2,1014.7,304.9,0.8,1.9,326.0,0.02,-1.0,4.4,"08:00:08",1
"22/01/25","08:20",0.0,-0.4,97.6,1014.9,298.3,1.5,2.1,316.6,0.03,-0.7,4.3,"08:18:30",1
"22/01/25","08:30",0.0,0.1,98.2,1014.5,266.1,0.7,1.8,308.1,0.04,-0.1,4.4,"08:20:08",1
"22/01/25","08:40",0.0,0.5,97.7,1015.2,312.3,1.3,2.2,323.5,0.05,0.2,4.3,"08:34:16",1
"22/01/25","08:50",0.0,0.9,98.2,1015.2,266.7,0.8,1.2,291.7,0.07,0.7,4.3,"08:45:46",1
"22/01/25","09:00",0.0,1.8,97.5,1014.9,213.9,0.2,0.6,244.9,0.10,1.5,4.3,"08:50:08",1
"22/01/25","09:10",0.0,2.4,97.9,1015.6,293.6,0.8,1.6,299.8,0.12,2.1,4.2,"09:07:34",1
"22/01/25","09:20",0.2,2.8,97.8,1016.1,292.0,0.8,1.1,289.4,0.15,2.5,4.4,"09:16:10",1
"22/01/25","09:30",0.0,3.0,97.9,1016.4,289.4,0.0,0.0,0.0,0.14,2.7,4.4,"09:20:00",1
"22/01/25","09:40",0.0,3.6,97.8,1016.1,289.4,0.0,0.0,0.0,0.18,3.3,4.2,"09:30:00",1
"22/01/25","09:50",0.0,4.2,97.7,1016.6,281.5,1.0,1.1,283.3,0.22,3.9,4.3,"09:48:26",1
"22/01/25","10:00",0.0,4.3,97.1,1016.6,251.8,1.1,2.1,234.2,0.24,3.9,4.2,"09:57:54",1
"22/01/25","10:10",0.0,4.6,96.7,1016.8,222.3,0.7,1.4,265.1,0.27,4.2,4.2,"10:00:40",1
"22/01/25","10:20",0.0,4.8,95.5,1017.1,224.8,0.8,2.2,205.2,0.28,4.2,4.3,"10:18:34",1
"22/01/25","10:30",0.0,5.3,94.9,1017.1,198.8,1.2,2.5,209.9,0.30,4.6,4.4,"10:21:44",1
"22/01/25","10:40",0.0,5.9,93.9,1017.3,236.3,1.2,2.6,230.0,0.33,5.0,4.4,"10:37:54",1
"22/01/25","10:50",0.0,6.3,91.2,1017.3,286.4,1.0,3.1,338.6,0.35,5.0,4.5,"10:49:18",1
"22/01/25","11:00",0.0,6.8,86.6,1017.3,253.3,1.0,1.7,332.6,0.37,4.8,4.4,"10:50:10",1
"22/01/25","11:10",0.0,7.1,80.7,1017.5,183.2,1.1,2.6,114.9,0.38,4.1,4.7,"11:06:02",1
"22/01/25","11:20",0.0,7.7,74.8,1017.3,307.2,1.0,2.4,133.2,0.40,3.6,4.5,"11:15:32",1
"22/01/25","11:30",0.0,7.9,71.0,1017.5,153.6,1.1,2.5,131.4,0.41,3.0,4.7,"11:23:36",1
"22/01/25","11:40",0.0,8.2,68.8,1017.3,172.1,0.8,2.5,168.2,0.43,2.9,5.0,"11:30:24",1
"22/01/25","11:50",0.0,8.4,66.9,1016.8,204.8,1.6,3.1,177.0,0.42,2.7,4.8,"11:48:40",1
"22/01/25","12:00",0.0,8.7,66.7,1016.6,164.9,1.2,3.3,114.3,0.41,2.9,5.0,"11:59:54",1
"22/01/25","12:10",0.0,8.4,65.4,1016.6,152.7,1.6,3.4,124.6,0.35,2.3,4.9,"12:02:58",1
"22/01/25","12:20",0.0,8.4,65.0,1016.4,200.3,1.5,3.4,121.2,0.28,2.2,5.3,"12:14:16",1
"22/01/25","12:30",0.0,8.5,63.9,1015.6,229.3,1.1,2.5,209.1,0.27,2.1,5.2,"12:27:46",1
"22/01/25","12:40",0.0,8.5,63.1,1015.6,202.0,1.1,2.6,192.4,0.21,1.9,5.3,"12:35:54",1
"22/01/25","12:50",0.0,8.5,62.1,1015.4,222.6,1.0,2.4,229.8,0.21,1.7,5.1,"12:49:20",1
"22/01/25","13:00",0.0,8.8,62.5,1015.2,233.3,1.3,3.3,258.0,0.23,2.1,5.4,"12:50:02",1
"22/01/25","13:10",0.0,8.6,61.0,1014.9,204.9,2.0,4.4,204.2,0.26,1.6,5.4,"13:06:16",1
"22/01/25","13:20",0.0,8.9,60.6,1014.7,194.9,1.2,2.1,180.7,0.21,1.7,5.4,"13:15:20",1
"22/01/25","13:30",0.0,9.0,59.5,1014.7,213.6,1.0,2.0,198.5,0.22,1.6,5.3,"13:24:56",1
"22/01/25","13:40",0.0,9.3,57.5,1014.2,201.7,1.3,2.7,233.5,0.28,1.4,5.7,"13:37:12",1
"22/01/25","13:50",0.0,9.4,58.2,1014.7,194.1,1.5,2.9,156.1,0.23,1.6,5.7,"13:44:40",1
"22/01/25","14:00",0.0,9.2,57.2,1014.5,192.8,1.1,2.8,218.5,0.20,1.2,5.9,"13:51:52",1
"22/01/25","14:10",0.0,8.9,56.8,1014.5,103.7,1.1,2.8,122.7,0.15,0.8,5.9,"14:01:12",1
"22/01/25","14:20",0.0,9.1,56.9,1014.2,295.1,0.7,1.3,332.5,0.13,1.1,5.8,"14:17:20",1
"22/01/25","14:30",0.0,9.4,56.9,1014.5,277.3,1.0,2.2,323.4,0.13,1.3,6.0,"14:29:04",1
"22/01/25","14:40",0.0,9.3,55.6,1014.5,334.9,1.3,2.5,345.1,0.08,0.9,6.2,"14:32:48",1
"22/01/25","14:50",0.0,9.2,55.7,1014.2,327.2,1.8,2.4,330.5,0.06,0.9,6.1,"14:41:28",1
"22/01/25","15:00",0.0,9.0,56.4,1014.2,340.6,1.1,1.8,348.4,0.05,0.8,6.1,"14:55:20",1
"22/01/25","15:10",0.0,9.1,57.2,1014.2,307.3,0.8,1.7,318.2,0.04,1.1,6.2,"15:06:08",1
"22/01/25","15:20",0.0,9.1,57.6,1014.2,297.9,0.7,1.3,339.7,0.04,1.2,6.1,"15:19:28",1
"22/01/25","15:30",0.0,8.9,58.4,1014.0,97.7,0.5,1.3,307.8,0.05,1.2,6.3,"15:29:28",1
"22/01/25","15:40",0.0,9.0,59.2,1013.5,8.5,0.6,1.6,312.7,0.05,1.5,6.4,"15:39:12",1
"22/01/25","15:50",0.0,9.2,58.1,1013.8,333.9,1.1,2.4,332.5,0.07,1.4,6.4,"15:45:04",1
"22/01/25","16:00",0.0,9.2,57.6,1013.5,343.6,0.5,1.1,9.8,0.05,1.3,6.5,"15:55:52",1
"22/01/25","16:10",0.0,9.2,57.5,1013.5,255.6,0.6,1.9,318.1,0.04,1.3,6.3,"16:09:52",1
"22/01/25","16:20",0.0,9.1,57.6,1013.5,330.2,0.7,1.7,322.9,0.03,1.2,6.5,"16:11:52",1
"22/01/25","16:30",0.0,9.1,58.1,1014.0,318.7,0.7,1.6,322.2,0.01,1.3,6.5,"16:22:24",1
"22/01/25","16:40",0.0,8.9,58.6,1014.2,296.9,1.0,1.6,318.6,0.00,1.3,6.6,"16:35:36",1
"22/01/25","16:50",0.0,8.8,59.8,1014.0,279.4,1.5,4.2,254.7,0.00,1.5,6.5,"16:49:36",1
"22/01/25","17:00",0.0,8.5,61.2,1014.2,223.7,1.2,4.1,251.8,0.00,1.5,6.5,"16:50:24",1
"22/01/25","17:10",0.0,8.3,61.8,1014.2,115.7,1.0,2.4,96.0,0.00,1.4,6.6,"17:06:56",1
"22/01/25","17:20",0.0,8.1,61.7,1014.0,77.1,1.0,1.7,89.6,0.00,1.2,6.6,"17:10:56",1
"22/01/25","17:30",0.0,8.0,62.1,1014.2,36.8,0.6,1.2,40.1,0.00,1.2,6.6,"17:22:16",1
"22/01/25","17:40",0.0,7.6,63.7,1014.5,61.3,0.5,1.7,320.2,0.00,1.2,6.7,"17:30:02",1
"22/01/25","17:50",0.0,7.4,64.3,1014.5,316.4,1.3,1.9,318.8,0.00,1.1,6.6,"17:46:56",1
"22/01/25","18:00",0.0,7.0,65.6,1014.5,282.7,0.6,1.3,313.8,0.00,1.0,6.5,"17:51:12",1
"22/01/25","18:10",0.0,6.8,67.8,1014.2,326.6,1.6,2.5,334.8,0.00,1.3,6.7,"18:08:40",1
"22/01/25","18:20",0.0,6.3,70.4,1014.5,316.4,1.7,2.7,324.5,0.00,1.4,6.7,"18:14:32",1
"22/01/25","18:30",0.0,6.1,72.1,1014.5,313.5,1.3,1.8,327.1,0.00,1.5,6.5,"18:25:44",1
"22/01/25","18:40",0.0,6.0,73.6,1014.2,317.1,1.8,2.5,327.3,0.00,1.7,6.7,"18:33:12",1
"22/01/25","18:50",0.0,5.7,74.6,1014.5,305.9,1.7,2.7,323.8,0.00,1.6,6.7,"18:41:04",1
"22/01/25","19:00",0.0,5.3,75.9,1014.5,319.7,2.1,2.8,323.2,0.00,1.4,6.6,"18:57:36",1
"22/01/25","19:10",0.0,4.9,77.2,1014.7,290.2,1.6,2.4,300.9,0.00,1.3,6.5,"19:00:50",1
"22/01/25","19:20",0.0,4.7,78.6,1014.7,290.5,2.1,2.7,300.5,0.00,1.3,6.7,"19:11:28",1
"22/01/25","19:30",0.0,4.5,79.7,1014.2,287.1,2.0,2.8,308.4,0.00,1.3,6.5,"19:26:16",1
"22/01/25","19:40",0.0,4.3,80.9,1014.5,298.2,2.3,3.1,308.1,0.00,1.4,6.2,"19:32:40",1
"22/01/25","19:50",0.0,4.0,82.1,1014.7,298.1,2.0,2.6,323.4,0.00,1.3,6.5,"19:42:00",1
"22/01/25","20:00",0.0,4.0,83.3,1014.7,289.1,2.2,3.9,320.2,0.00,1.5,6.7,"19:58:56",1
"22/01/25","20:10",0.0,4.0,84.1,1014.7,297.8,2.7,3.9,304.8,0.00,1.6,6.4,"20:01:52",1
"22/01/25","20:20",0.0,3.9,84.6,1014.7,297.0,2.8,4.2,316.5,0.00,1.6,6.5,"20:19:52",1
"22/01/25","20:30",0.0,4.0,84.9,1014.9,313.1,3.1,4.3,298.0,0.00,1.7,6.5,"20:26:00",1
"22/01/25","20:40",0.0,3.8,84.9,1014.7,300.8,2.5,4.0,328.8,0.00,1.5,6.5,"20:30:24",1
"22/01/25","20:50",0.0,3.5,85.2,1014.5,311.7,2.6,3.9,335.2,0.00,1.3,6.3,"20:49:52",1
"22/01/25","21:00",0.0,3.5,85.5,1014.7,314.7,3.0,3.9,313.7,0.00,1.3,6.3,"20:58:16",1
"22/01/25","21:10",0.0,3.6,85.5,1014.7,322.2,3.6,4.8,328.2,0.00,1.4,6.1,"21:02:08",1
"22/01/25","21:20",0.0,3.4,85.6,1014.2,318.2,3.4,4.8,322.6,0.00,1.3,6.3,"21:10:24",1
"22/01/25","21:30",0.0,3.4,86.0,1014.7,324.7,3.2,4.3,329.8,0.00,1.3,6.4,"21:25:04",1
"22/01/25","21:40",0.0,3.3,86.2,1014.2,314.3,3.1,4.7,317.3,0.00,1.3,6.2,"21:31:20",1
"22/01/25","21:50",0.0,3.4,86.3,1014.5,324.2,3.4,4.5,328.8,0.00,1.4,6.2,"21:43:28",1
"22/01/25","22:00",0.0,3.2,86.6,1014.5,322.8,2.5,3.9,315.9,0.00,1.2,6.3,"21:58:08",1
"22/01/25","22:10",0.0,3.0,86.8,1014.0,331.4,1.7,2.4,348.2,0.00,1.1,6.2,"22:04:00",1
"22/01/25","22:20",0.0,2.6,87.1,1013.8,335.0,2.0,2.7,330.4,0.00,0.7,6.2,"22:18:16",1
"22/01/25","22:30",0.0,2.4,87.5,1014.0,325.3,3.2,4.5,330.5,0.00,0.6,6.2,"22:28:32",1
"22/01/25","22:40",0.0,2.5,87.8,1014.0,328.3,3.5,4.9,318.8,0.00,0.7,6.0,"22:37:22",1
"22/01/25","22:50",0.0,2.4,88.2,1014.0,329.9,3.2,5.5,338.0,0.00,0.7,6.1,"22:46:42",1
"22/01/25","23:00",0.0,2.2,88.6,1014.0,327.3,3.2,4.2,333.4,0.00,0.6,6.2,"22:56:16",1
"22/01/25","23:10",0.0,2.1,89.0,1014.0,329.7,3.2,4.1,324.5,0.00,0.5,6.0,"23:04:48",1
"22/01/25","23:20",0.0,2.2,89.4,1014.2,334.3,3.4,4.7,342.3,0.00,0.7,6.0,"23:15:28",1
"22/01/25","23:30",0.0,2.2,89.6,1014.0,330.1,2.8,3.9,337.9,0.00,0.7,5.7,"23:21:20",1
"22/01/25","23:40",0.0,2.1,89.9,1014.0,331.9,2.8,4.3,345.6,0.00,0.7,6.0,"23:35:14",1
"22/01/25","23:50",0.0,2.0,90.2,1014.2,329.9,2.8,4.0,337.2,0.00,0.6,5.8,"23:46:32",1
"22/01/25","24:00",0.0,2.0,90.5,1014.0,331.5,3.0,4.4,339.9,0.00,0.7,5.9,"23:58:24",1
